Home   Weather   Port Said   Past weeks

Flag for Egypt Past Weather in Port Said, Egypt — Yesterday and Last 2 Weeks

Now
68 °F

Sunny.


Feels Like: 68 °F
Forecast: 65 / 75 °F
Wind: 9 mph from Southwest

Location: Port Said Airport

Current Time: Apr 29, 2017 at 7:54:00 am

Latest Report: Apr 29, 2017 at 6:00 am


Visibility: 10 mi

Pressure: 29.92 "Hg

Humidity: 78%

Dew Point: 61 °F

Location of Port SaidLocation

Past Weather in Port Said — Graph

°F

Port Said Temperature Yesterday

Maximum temperature yesterday: 73 °F (at 1:00 pm)
Minimum temperature yesterday: 63 °F (at 4:00 am)
Average temperature yesterday: 69 °F

High & Low Weather Summary for the Past Weeks

 TemperatureHumidityPressure
High86 °F (Apr 18, 2:00 pm)94% (Apr 16, 2:00 am)30.15 "Hg (Apr 16, 2:00 am)
Low61 °F (Apr 14, 6:00 am)27% (Apr 18, 2:00 pm)29.68 "Hg (Apr 22, 5:00 pm)
Average68 °F74%30.01 "Hg
* Reported Apr 14 6:00 am — Apr 29 6:00 am, Port Said, Weather by CustomWeather, © 2017

Note: Actual official high and low records may vary slightly from our data, if they occured in-between our weather recording intervals... More about our weather records

Advertising

Port Said Weather History for the Previous 24 Hours

Scroll right to see more
 ConditionsComfort  
Time TempWeatherWind HumidityBarometerVisibility
6:00 am
Sat, Apr 29
68 °FSunny.9 mph78%29.92 "Hg10 mi
5:00 am66 °FClear.9 mph78%29.92 "Hg10 mi
4:00 am64 °FClear.8 mph88%29.92 "Hg10 mi
3:00 am66 °FClear.7 mph83%29.92 "Hg10 mi
2:00 am66 °FClear.9 mph83%29.92 "Hg10 mi
1:00 am66 °FClear.6 mph83%29.95 "Hg10 mi
12:00 am66 °FClear.7 mph83%29.95 "Hg10 mi
11:00 pm
Fri, Apr 28
68 °FClear.9 mph78%29.95 "Hg10 mi
10:00 pm68 °FClear.8 mph78%29.95 "Hg10 mi
9:00 pm68 °FClear.8 mph73%29.95 "Hg10 mi
8:00 pm68 °FClear.8 mph73%29.95 "Hg10 mi
7:00 pm70 °FClear.9 mph69%29.95 "Hg10 mi
6:00 pm70 °FSunny.8 mph69%29.95 "Hg10 mi
5:00 pm73 °FSunny.8 mph61%29.95 "Hg10 mi
4:00 pm73 °FSunny.10 mph65%29.95 "Hg10 mi
3:00 pm72 °FSunny.12 mph61%29.95 "Hg10 mi
2:00 pm73 °FSunny.12 mph57%29.95 "Hg10 mi
1:00 pm73 °FSunny.8 mph61%29.98 "Hg10 mi
12:00 pm72 °FSunny.6 mph61%29.98 "Hg10 mi
11:00 am72 °FSunny.3 mph65%30.01 "Hg10 mi
10:20 am70 °FSunny.2 mph64%30.01 "Hg10 mi
9:00 am70 °FSunny.2 mph64%30.01 "Hg10 mi
8:30 am70 °FSunny.2 mph64%30.01 "Hg10 mi
7:00 am68 °FSunny.2 mph69%29.98 "Hg10 mi
Weather by CustomWeather, © 2017

See weather overviewHow to use our weather pages